Location: Church Tower
(37.7144°N, 119.6316°W)
Time: 19:23:53
(UTC+00:00)

Cosmos 2061 Rocket - Pass Details

Date: 15 November 2025
Orbit: 964 x 1013 km, 82.9° (Epoch: 08 December)

Event Time Altitude Azimuth Distance (km) Brightness Sun altitude
Rises 13:01:33 0° 348° (NNW) 3,659 6.8 -19.3°
Reaches altitude 10° 13:04:05 10° 345° (NNW) 2,708 6.1 -18.8°
Maximum altitude 13:10:08 59° 268° (W) 1,111 4.0 -17.6°
Drops below altitude 10° 13:16:10 10° 190° (S) 2,701 6.3 -16.5°
Sets 13:18:42 0° 187° (S) 3,649 7.1 -16.0°
